Find Starlink 11510

NORAD ID: 62516 Int'l Des: 2025-004 Owner: SPXS Country: US Constellation: starlink operational
又名: STARLINK-11510 [DTC] celestrak
LEOCIRCULAR

当前视图

正在加载3D地球...

About Starlink 11510

Starlink 11510 (NORAD 62516) is a starlink constellation satellite (v2 mini d2c) launched Jan 8, 2025 by SPXS of US. It operates in LEO, CIRCULAR orbit with a mass of 960.00 kg.

即将过境

Passes for default location (London). Set your location on the main map for personalized predictions.

高度历史

Loading altitude history...

两行轨道根数

1 62516U 25004F 26263.91670139 -.00395324 00000-0 -32003-2 0 9994
2 62516 43.0007 334.2331 0001503 275.7712 301.8687 15.71028815 5786
Epoch: Sep 20, 2026 • Age: 9 hours

当前状态

高度 360.8 km
远地点 / 近地点 N/A
速度 7.70 km/s
星下点 42.45°N, 25.18°W
发射日期 Jan 8, 2025
运行时间 1.6 years
类型 internet

技术详情

分类 Payload
质量 960.00 kg
干质量 910.00 kg
长度 0.30 m
跨度 29.00 m
形状 ? Box + pan
制造商 SPXS
平台类型 Starlink V2MD
阶段状态 In Orbit
所有者/国家 SPXS/US

Most Searched